Naturita, CO

12:51 AM MST on February 22, 2017 (GMT -0700)
Nucla Hopkins Field Airport

Weather History for KAIB - May, 2013

Change the Weather History Date:

Thursday, May 30, 2013

  Actual Average (KTEX) Record (KTEX)
Temperature  
Mean Temperature 58 °F -  
Max Temperature 73 °F 63 °F 80 °F (2002)
Min Temperature 42 °F 40 °F 26 °F (2004)
Degree Days  
Heating Degree Days 8    
Growing Degree Days 8 (Base 50)    
Moisture  
Dew Point 25 °F    
Average Humidity 31    
Maximum Humidity 61    
Minimum Humidity 13    
Precipitation  
Precipitation 0.00 in - - ()
Sea Level Pressure  
Sea Level Pressure 29.98 in    
Wind  
Wind Speed 9 mph (WNW)    
Max Wind Speed 24 mph    
Max Gust Speed 34 mph    
Visibility 10 miles    
Events      
Averages and records for this station are not official NWS values.
T = Trace of Precipitation, MM = Missing Value Source: NWS Daily Summary

Daily Weather History Graph

Daily Weather History Graph

Search for Another Location

Airport or City:

Trip Planner

Search our weather history database for the weather conditions in past years. The results will help you decide how hot, cold, wet, or windy it might be!

Date:

Astronomy

May. 30, 2013 Rise Set
Actual Time 5:53 AM MDT 8:30 PM MDT
Civil Twilight 5:22 AM MDT 9:01 PM MDT
Nautical Twilight 4:44 AM MDT 9:40 PM MDT
Astronomical Twilight 4:01 AM MDT 10:23 PM MDT
Moon 12:36 AM MDT (5/30) 12:01 PM MDT (5/30)
Length of Visible Light 15h 39m
Length of Day
14h 37m
Waning Gibbous, 61% of the Moon is Illuminated
May 30
Waning Gibbous
May 31
Last Quarter
Jun 8
New
Jun 16
First Quarter
Jun 23
Full

Hourly Weather History & Observations

Time (MDT) Temp. Windchill Dew Point Humidity Pressure Visibility Wind Dir Wind Speed Gust Speed Precip Events Conditions
12:15 AM 46.4 °F 42.4 °F 30.2 °F 53% 29.92 in 10.0 mi East 8.1 mph - N/A   Clear
12:35 AM 48.2 °F - 30.2 °F 50% 29.92 in 10.0 mi East 9.2 mph - N/A   Clear
12:55 AM 46.4 °F 41.9 °F 28.4 °F 50% 29.93 in 10.0 mi East 9.2 mph - N/A   Scattered Clouds
1:15 AM 48.2 °F - 28.4 °F 46% 29.92 in 10.0 mi East 8.1 mph - N/A   Scattered Clouds
1:35 AM 46.4 °F 41.9 °F 28.4 °F 50% 29.93 in 10.0 mi East 9.2 mph - N/A   Scattered Clouds
1:55 AM 46.4 °F 43.5 °F 30.2 °F 53% 29.94 in 10.0 mi SE 5.8 mph - N/A   Scattered Clouds
2:15 AM 46.4 °F 42.4 °F 30.2 °F 53% 29.94 in 10.0 mi ESE 8.1 mph - N/A   Mostly Cloudy
2:35 AM 46.4 °F 42.4 °F 30.2 °F 53% 29.94 in 10.0 mi East 8.1 mph - N/A   Overcast
2:55 AM 48.2 °F - 28.4 °F 46% 29.94 in 10.0 mi East 8.1 mph - N/A   Overcast
3:15 AM 48.2 °F - 30.2 °F 50% 29.94 in 10.0 mi ESE 5.8 mph - N/A   Overcast
3:35 AM 48.2 °F - 30.2 °F 50% 29.94 in 10.0 mi East 6.9 mph - N/A   Overcast
3:55 AM 46.4 °F 45.2 °F 30.2 °F 53% 29.95 in 10.0 mi SE 3.5 mph - N/A   Overcast
4:15 AM 46.4 °F 45.2 °F 30.2 °F 53% 29.95 in 10.0 mi SE 3.5 mph - N/A   Mostly Cloudy
4:35 AM 46.4 °F 42.4 °F 30.2 °F 53% 29.95 in 10.0 mi East 8.1 mph - N/A   Mostly Cloudy
4:55 AM 44.6 °F 40.7 °F 30.2 °F 57% 29.95 in 10.0 mi East 6.9 mph - N/A   Scattered Clouds
5:15 AM 46.4 °F 42.4 °F 30.2 °F 53% 29.95 in 10.0 mi East 8.1 mph - N/A   Scattered Clouds
5:35 AM 44.6 °F 41.4 °F 30.2 °F 57% 29.96 in 10.0 mi SE 5.8 mph - N/A   Scattered Clouds
5:55 AM 42.8 °F 39.3 °F 30.2 °F 61% 29.97 in 10.0 mi ESE 5.8 mph - N/A   Scattered Clouds
6:15 AM 42.8 °F 39.3 °F 30.2 °F 61% 29.98 in 10.0 mi East 5.8 mph - N/A   Clear
6:35 AM 42.8 °F 39.3 °F 30.2 °F 61% 29.98 in 10.0 mi East 5.8 mph - N/A   Clear
6:55 AM 44.6 °F - 32.0 °F 61% 30.00 in 10.0 mi Calm Calm - N/A   Clear
7:15 AM 48.2 °F - 32.0 °F 54% 30.00 in 10.0 mi East 6.9 mph - N/A   Clear
7:35 AM 50.0 °F - 32.0 °F 50% 30.01 in 10.0 mi ESE 5.8 mph - N/A   Clear
7:55 AM 51.8 °F - 32.0 °F 47% 30.01 in 10.0 mi SE 5.8 mph - N/A   Clear
8:15 AM 53.6 °F - 30.2 °F 41% 30.01 in 10.0 mi SE 3.5 mph - N/A   Clear
8:35 AM 53.6 °F - 28.4 °F 38% 30.02 in 10.0 mi Calm Calm - N/A   Clear
8:55 AM 55.4 °F - 28.4 °F 36% 30.03 in 10.0 mi Calm Calm - N/A   Clear
9:15 AM 59.0 °F - 28.4 °F 31% 30.03 in 10.0 mi Calm Calm - N/A   Clear
9:35 AM 59.0 °F - 26.6 °F 29% 30.03 in 10.0 mi NNW 4.6 mph - N/A   Clear
9:55 AM 60.8 °F - 28.4 °F 29% 30.02 in 10.0 mi North 8.1 mph - N/A   Clear
10:15 AM 60.8 °F - 28.4 °F 29% 30.02 in 10.0 mi Calm Calm - N/A   Clear
10:35 AM 60.8 °F - 28.4 °F 29% 30.01 in 10.0 mi Calm Calm - N/A   Clear
10:55 AM 60.8 °F - 28.4 °F 29% 30.00 in 10.0 mi South 4.6 mph - N/A   Clear
11:15 AM 62.6 °F - 26.6 °F 26% 30.00 in 10.0 mi Calm Calm - N/A   Clear
11:35 AM 64.4 °F - 28.4 °F 26% 30.00 in 10.0 mi West 9.2 mph - N/A   Scattered Clouds
11:55 AM 64.4 °F - 26.6 °F 24% 29.99 in 10.0 mi WNW 5.8 mph - N/A   Scattered Clouds
12:15 PM 68.0 °F - 23.0 °F 18% 29.99 in 10.0 mi West 17.3 mph 28.8 mph N/A   Clear
12:35 PM 68.0 °F - 21.2 °F 17% 30.00 in 10.0 mi West 15.0 mph 28.8 mph N/A   Clear
12:55 PM 69.8 °F - 21.2 °F 16% 30.00 in 10.0 mi WNW 18.4 mph 27.6 mph N/A   Clear
1:15 PM 69.8 °F - 21.2 °F 16% 29.99 in 10.0 mi West 23.0 mph 32.2 mph N/A   Clear
1:35 PM 69.8 °F - 19.4 °F 15% 29.98 in 10.0 mi West 16.1 mph 28.8 mph N/A   Clear
1:55 PM 69.8 °F - 21.2 °F 16% 29.98 in 10.0 mi West 15.0 mph 27.6 mph N/A   Clear
2:15 PM 69.8 °F - 19.4 °F 15% 29.98 in 10.0 mi West 17.3 mph 26.5 mph N/A   Clear
2:35 PM 71.6 °F - 19.4 °F 14% 29.98 in 10.0 mi West 16.1 mph 34.5 mph N/A   Clear
2:55 PM 73.4 °F - 19.4 °F 13% 29.97 in 10.0 mi WNW 19.6 mph 27.6 mph N/A   Clear
3:15 PM 71.6 °F - 19.4 °F 14% 29.98 in 10.0 mi WSW 21.9 mph 29.9 mph N/A   Clear
3:35 PM 71.6 °F - 17.6 °F 13% 29.97 in 10.0 mi WNW 21.9 mph 34.5 mph N/A   Clear
3:55 PM 71.6 °F - 19.4 °F 14% 29.97 in 10.0 mi WNW 13.8 mph 24.2 mph N/A   Clear
4:15 PM 71.6 °F - 19.4 °F 14% 29.96 in 10.0 mi West 18.4 mph 26.5 mph N/A   Clear
4:35 PM 71.6 °F - 19.4 °F 14% 29.96 in 10.0 mi West 19.6 mph 32.2 mph N/A   Clear
4:55 PM 73.4 °F - 19.4 °F 13% 29.95 in 10.0 mi West 17.3 mph 25.3 mph N/A   Clear
5:15 PM 71.6 °F - 19.4 °F 14% 29.94 in 10.0 mi West 19.6 mph 29.9 mph N/A   Clear
5:35 PM 71.6 °F - 19.4 °F 14% 29.94 in 10.0 mi WSW 17.3 mph 29.9 mph N/A   Scattered Clouds
5:55 PM 71.6 °F - 21.2 °F 15% 29.94 in 10.0 mi West 17.3 mph 24.2 mph N/A   Scattered Clouds
6:15 PM 71.6 °F - 19.4 °F 14% 29.94 in 10.0 mi West 13.8 mph 29.9 mph N/A   Clear
6:35 PM 71.6 °F - 21.2 °F 15% 29.94 in 10.0 mi WSW 24.2 mph 32.2 mph N/A   Scattered Clouds
6:55 PM 71.6 °F - 21.2 °F 15% 29.94 in 10.0 mi West 16.1 mph 23.0 mph N/A   Clear
7:15 PM 71.6 °F - 21.2 °F 15% 29.94 in 10.0 mi West 12.7 mph 18.4 mph N/A   Clear
7:35 PM 69.8 °F - 21.2 °F 16% 29.94 in 10.0 mi West 15.0 mph - N/A   Clear
7:55 PM 69.8 °F - 19.4 °F 15% 29.94 in 10.0 mi WNW 13.8 mph 17.3 mph N/A   Clear
8:15 PM 68.0 °F - 19.4 °F 16% 29.95 in 10.0 mi WNW 15.0 mph 23.0 mph N/A   Clear
8:35 PM 66.2 °F - 19.4 °F 17% 29.97 in 10.0 mi NNW 13.8 mph 19.6 mph N/A   Clear
8:55 PM 64.4 °F - 19.4 °F 18% 29.97 in 10.0 mi NNW 16.1 mph 21.9 mph N/A   Clear
9:15 PM 62.6 °F - 21.2 °F 20% 29.98 in 10.0 mi NNW 13.8 mph 20.7 mph N/A   Clear
9:35 PM 62.6 °F - 19.4 °F 19% 30.00 in 10.0 mi NNW 11.5 mph - N/A   Clear
9:55 PM 59.0 °F - 21.2 °F 23% 30.00 in 10.0 mi NNW 6.9 mph - N/A   Clear
10:15 PM 59.0 °F - 21.2 °F 23% 30.01 in 10.0 mi NNW 5.8 mph - N/A   Clear
10:35 PM 59.0 °F - 19.4 °F 22% 30.01 in 10.0 mi NNW 4.6 mph - N/A   Clear
10:55 PM 59.0 °F - 19.4 °F 22% 30.02 in 10.0 mi NW 3.5 mph - N/A   Clear
11:15 PM 59.0 °F - 19.4 °F 22% 30.03 in 10.0 mi North - - N/A   Clear
11:35 PM 59.0 °F - 19.4 °F 22% 30.03 in 10.0 mi North - - N/A   Clear
11:55 PM 51.8 °F - 21.2 °F 30% 30.03 in 10.0 mi East 9.2 mph - N/A   Clear